sat.trackr.live / text

‹ back to catalog

ONEWEB-0561

NORAD 56710 · 2023-068A

PAYLOAD ACTIVE UNKNOWN

§ Identity

Operator
Country
UK
Launch date
2023-05-20
Launch site
AFWTR
Launch vehicle
Mass (kg)
RCS (m²)

Purposes: comms

External: N2YO · Heavens-Above · Gunter

§ Orbital elements

Epoch: 2026-09-19T23:15:57.043008Z

Period
109.03 min
Inclination
87.9142°
Eccentricity
0.0002239
Mean motion
13.20770415 rev/d
Perigee alt
1,180.1 km
Apogee alt
1,183.5 km
Semi-major
7,559.9 km
B*
1.9702e-4
RAAN
255.5347°
Arg perigee
85.0747°
Mean anomaly
275.0642°
Rev number
16,201

§ Raw data

ONEWEB-05611 56710U 23068A   26262.96941022  .00000093  00000+0  19702-3 0  99922 56710  87.9142 255.5347 0002239  85.0747 275.0642 13.20770415162016

JSON: /api/v1/satellites/56710 · /tle

For live sub-satellite position, see the globe view (requires WebGL).

§ Visibility from observer

Set your observer location to see the next 7 days of passes ≥ 10°. The values pass through the URL so the page stays shareable.

No JS? Fill the form by hand. The geolocation button needs JavaScript.